STARLINK-11637, 63190

Orbit data source: Space-Track

STARLINK-11637, 63190 is a payload satellite owned by SpaceX/Seattle (US) in LEO that was launched on Thu, 13 Mar 2025 UTC via an FALCON 9 launch vehicle from the Air Force Eastern Test Range (AFETR). Payload-class satellites include a variety of spacecraft equipped with specific instruments for various scientific and technological missions. These include communications satellites like Starlink; space stations such as the ISS; scientific satellites like the Hubble; Earth observation satellites from companies like Planet Labs, Umbra, and HawkEye 360; GPS; miniature CubeSats for education and research; and military/defense satellites.

Loading next visibility...
Identifier
63190, 2025-048H
Orbit
LEO
Country
Flag of USUS
Related business
Manufacturer
SpaceX/Seattle
Mission
Operational Commercial Communications
Bus & Motor
STARLINK V2MD, Unknown motor
Mass
960 kg wet, ~910 kg dry
Launch date (UTC)
2025-03-13 (1 year ago)
Launch vehicle
FALCON 9
Launch site
Air Force Eastern Test Range (AFETR)
Object type
Payload
Rocket body
Debris
Shape & HBR
Box + 2 Pan, 18.1 m
Radar Cross Section
36.964 m², Large (>1 m²)

Expand to show TLE details & history
Last TLE update: 1 day ago

TLE from 1 day ago
0 STARLINK-11637
1 63190U 25048H   26170.40338725  .00173495  00000-0  13270-2 0  9990
2 63190  43.0014  67.1979 0000353 283.4161  76.6668 15.70849536 74512
Epoch: 2026-06-19T09:40Z
TLE epoch observation values (Epoch: 2026-06-19T09:40:52.658Z)
Latitude
0.00003°
Longitude
14.34566°
Altitude
356.184 km
Speed
7.697 km/s
True Right ascension
04h 28m 47s
True Declination
0° 00' 00"
Sunlit
Object was in daylight at epoch
Visualization orbit readout
Latitude
Unknown
Longitude
Unknown
Altitude
Unknown
Speed
Unknown
Apparent Right ascension
Unknown
Apparent Declination
Unknown
Sunlit
N/A
Visualization observer readout
Local Sidereal Time
07:21:10
Azimuth
Unknown
Elevation
Unknown
Doppler factor
Unknown
Orbital elements
Apogee altitude
358.687 km
Perigee altitude
358.211 km
Semi-major axis
6,736.586 km
Eccentricity
0.00004
Inclination
43.0014°
RAAN
67.1979°
Arg. of periapsis
283.4161°
True anomaly
76.67074°
Mean anomaly
76.6668°
Eccentric anomaly
76.66877°
Mean motion
3.9254 °/min
Orbital period
91.71 mins
BSTAR
0.001327
Loading maneuver chart data...
Computing Atmospheric mass density...
Loading historical data...
Loading historical data...
Loading historical data...
Loading historical data...
Loading historical data...
Loading historical data...
Loading historical data...

Documentation

Showing up to 5 results
|